Weather History for KEED - November, 2012

Change the Weather History Date:

Thursday, November 1, 2012

  Actual Average Record
Temperature  
Mean Temperature 70 °F -  
Max Temperature 84 °F 79 °F 92 °F (1988)
Min Temperature 55 °F 54 °F 40 °F (1972)
Cooling Degree Days 4    
Growing Degree Days 20 (Base 50)    
Moisture  
Dew Point 26 °F    
Average Humidity 19    
Maximum Humidity 30    
Minimum Humidity 13    
Precipitation  
Precipitation 0.00 in - - ()
Sea Level Pressure  
Sea Level Pressure 29.83 in    
Wind  
Wind Speed 4 mph (West)    
Max Wind Speed 9 mph    
Max Gust Speed -    
Visibility 10 miles    
Events      
Averages and records for this station are not official NWS values.
T = Trace of Precipitation, MM = Missing Value Source: NWS Daily Summary

Daily Weather History Graph

Daily Weather History Graph

Search for Another Location

Airport or City:

Trip Planner

Search our weather history database for the weather conditions in past years. The results will help you decide how hot, cold, wet, or windy it might be!

Date:

Astronomy

Nov. 01, 2012 Rise Set
Actual Time 6:59 AM PDT 5:43 PM PDT
Civil Twilight 6:33 AM PDT 6:10 PM PDT
Nautical Twilight 6:03 AM PDT 6:39 PM PDT
Astronomical Twilight 5:34 AM PDT 7:09 PM PDT
Moon 7:49 PM PDT (11/1) 9:30 AM PDT (11/1)
Length of Visible Light 11h 36m
Length of Day
10h 44m
Waning Gibbous, 92% of the Moon is Illuminated
Nov 1
Waning Gibbous
Nov 6
Last Quarter
Nov 13
New
Nov 20
First Quarter
Nov 28
Full

Hourly Weather History & Observations

Time (PDT) Temp. Dew Point Humidity Pressure Visibility Wind Dir Wind Speed Gust Speed Precip Events Conditions
12:56 AM 61.0 °F 24.1 °F 24% 29.86 in 10.0 mi NW 6.9 mph - N/A   Clear
1:56 AM 62.1 °F 23.0 °F 22% 29.86 in 10.0 mi West 5.8 mph - N/A   Clear
2:56 AM 62.1 °F 23.0 °F 22% 29.86 in 10.0 mi NW 5.8 mph - N/A   Clear
3:56 AM 60.1 °F 23.0 °F 24% 29.86 in 10.0 mi WNW 6.9 mph - N/A   Clear
5:56 AM 55.9 °F 23.0 °F 28% 29.87 in 10.0 mi Calm Calm - N/A   Clear
6:56 AM 55.0 °F 24.1 °F 30% 29.88 in 10.0 mi Calm Calm - N/A   Clear
9:56 AM 66.9 °F 24.1 °F 20% 29.91 in 10.0 mi Calm Calm - N/A   Clear
10:56 AM 72.0 °F 25.0 °F 17% 29.90 in 10.0 mi Calm Calm - N/A   Clear
11:56 AM 75.0 °F 25.0 °F 16% 29.88 in 10.0 mi Calm Calm - N/A   Clear
12:56 PM 79.0 °F 28.0 °F 15% 29.85 in 10.0 mi Calm Calm - N/A   Clear
1:56 PM 81.0 °F 28.9 °F 15% 29.82 in 10.0 mi Variable 4.6 mph - N/A   Clear
2:56 PM 82.9 °F 30.9 °F 15% 29.79 in 10.0 mi East 5.8 mph - N/A   Clear
3:56 PM 84.9 °F 28.9 °F 13% 29.78 in 10.0 mi SE 5.8 mph - N/A   Clear
4:56 PM 84.0 °F 30.9 °F 15% 29.78 in 10.0 mi ESE 3.5 mph - N/A   Clear
5:56 PM 80.1 °F 26.1 °F 14% 29.79 in 10.0 mi SW 6.9 mph - N/A   Clear
6:56 PM 77.0 °F 26.1 °F 15% 29.80 in 10.0 mi West 9.2 mph - N/A   Clear
7:56 PM 73.0 °F 25.0 °F 17% 29.80 in 10.0 mi West 9.2 mph - N/A   Clear
8:56 PM 75.0 °F 25.0 °F 16% 29.80 in 10.0 mi Calm Calm - N/A   Clear
9:56 PM 72.0 °F 26.1 °F 18% 29.81 in 10.0 mi Calm Calm - N/A   Clear
10:56 PM 69.1 °F 26.1 °F 20% 29.81 in 10.0 mi West 5.8 mph - N/A   Clear
11:56 PM 66.0 °F 26.1 °F 22% 29.81 in 10.0 mi Calm Calm - N/A   Clear